Weather History for Point Lay, AK

Change the Weather History Date:

Tuesday, January 22, 2013

  Actual Average Record
Temperature  
Mean Temperature -13 °F -  
Max Temperature -13 °F -7 °F 24 °F (1999)
Min Temperature -13 °F -19 °F -42 °F (2012)
Degree Days  
Heating Degree Days 78    
Moisture  
Dew Point -18 °F    
Average Humidity 77    
Maximum Humidity 79    
Minimum Humidity 75    
Precipitation  
Precipitation 0.00 in - - ()
Sea Level Pressure  
Sea Level Pressure 30.49 in    
Wind  
Wind Speed 27 mph (ENE)    
Max Wind Speed 36 mph    
Max Gust Speed 43 mph    
Averages and records for this station are not official NWS values.
T = Trace of Precipitation, MM = Missing Value Source: NWS Daily Summary

Daily Weather History Graph

Daily Weather History Graph

Search for Another Location

Airport:

Trip Planner

Search our weather history database for the weather conditions in past years. The results will help you decide how hot, cold, wet, or windy it might be!

Date:

Astronomy

Jan. 22, 2013 Rise Set
Actual Time 12:27 PM AKST 3:40 PM AKST
Civil Twilight 10:42 AM AKST 5:26 PM AKST
Nautical Twilight 9:19 AM AKST 6:49 PM AKST
Astronomical Twilight 8:06 AM AKST 8:02 PM AKST
Moon No Moon Rise No Moon Set
Length of Visible Light 6h 43m
Length of Day
3h 13m
Waxing Gibbous, 84% of the Moon is Illuminated
Jan 22
Waxing Gibbous
Jan 26
Full
Feb 3
Last Quarter
Feb 9
New
Feb 17
First Quarter

Hourly Weather History & Observations

Time (AKST) Temp. Windchill Dew Point Humidity Pressure Visibility Wind Dir Wind Speed Gust Speed Precip Events Conditions
12:56 AM -13.0 °F -41.6 °F -18.9 °F 75% 30.55 in - ENE 25.3 mph 31.1 mph 0.00 in Snow Light Snow
1:56 AM -13.0 °F - -18.9 °F 75% 30.55 in - Calm Calm - 0.00 in   Mostly Cloudy
2:23 AM -13.0 °F -40.6 °F -18.4 °F 77% 30.53 in 0.8 mi ENE 23.0 mph 32.2 mph N/A   Haze
2:56 AM -13.0 °F -42.1 °F -18.4 °F 77% 30.52 in 0.5 mi ENE 26.5 mph 32.2 mph N/A Snow Snow
3:56 AM -13.0 °F -42.6 °F -17.9 °F 79% 30.52 in 0.5 mi ENE 27.6 mph 35.7 mph 0.00 in Snow Snow
4:56 AM -13.0 °F -43.9 °F -17.9 °F 79% 30.50 in 0.5 mi NE 31.1 mph 39.1 mph 0.00 in Snow Snow
5:45 AM -13.0 °F -43.9 °F -18.4 °F 77% 30.48 in 0.2 mi ENE 31.1 mph 36.8 mph 0.00 in Snow Heavy Snow
5:56 AM -13.0 °F -43.5 °F -18.4 °F 77% 30.48 in 0.2 mi ENE 29.9 mph 36.8 mph N/A Snow Heavy Snow
6:56 AM -13.0 °F -43.9 °F -17.9 °F 79% 30.50 in 0.2 mi ENE 31.1 mph 36.8 mph 0.00 in Snow Heavy Snow
7:56 AM -13.0 °F -44.7 °F -17.9 °F 79% 30.48 in 0.2 mi ENE 33.4 mph 36.8 mph 0.00 in Snow Heavy Snow
8:56 AM -13.0 °F -44.7 °F -18.4 °F 77% 30.46 in 0.2 mi ENE 33.4 mph 39.1 mph N/A Snow Heavy Snow
9:56 AM -13.0 °F -43.9 °F -17.9 °F 79% 30.48 in 0.2 mi ENE 31.1 mph 38.0 mph 0.00 in Snow Heavy Snow
10:29 AM -13.0 °F -44.3 °F -18.4 °F 77% 30.47 in 0.5 mi ENE 32.2 mph 41.4 mph 0.00 in   Haze
10:40 AM -13.0 °F -44.7 °F -18.4 °F 77% 30.47 in 0.2 mi ENE 33.4 mph 41.4 mph 0.00 in Snow Heavy Snow
10:56 AM -13.0 °F -44.3 °F -17.9 °F 79% 30.48 in 0.2 mi ENE 32.2 mph 41.4 mph 0.00 in Snow Heavy Snow
11:42 AM -13.0 °F -44.3 °F -18.4 °F 77% 30.46 in 0.2 mi ENE 32.2 mph 40.3 mph 0.00 in Snow Heavy Snow
11:56 AM -13.0 °F -45.1 °F -18.4 °F 77% 30.46 in 0.2 mi ENE 34.5 mph 40.3 mph N/A Snow Heavy Snow
12:56 PM -13.0 °F -44.7 °F -17.9 °F 79% 30.47 in - ENE 33.4 mph 40.3 mph 0.00 in Snow Light Snow
1:56 PM -13.0 °F -45.5 °F -18.9 °F 75% 30.45 in - ENE 35.7 mph 40.3 mph 0.00 in Snow Light Snow
2:56 PM -13.0 °F -45.5 °F -18.9 °F 75% 30.44 in - ENE 35.7 mph 42.6 mph 0.00 in Snow Light Snow
3:56 PM -13.0 °F -44.3 °F -18.9 °F 75% 30.44 in - ENE 32.2 mph 42.6 mph 0.00 in Snow Light Snow